Lapse_Rate
8.0 7.8 7.2 6.9 7.1 7.0 6.7 6.4 6.1 5.9 5.8 5.9 6.1 6.1 5.8 5.4 5.1 5.0 5.2 5.6 5.4 5.1 5.0 4.6 4.6 4.4 4.3 4.4 4.5 4.6 5.0 4.8 4.8 4.9 5.1 5.4 6.3 6.6 6.9 7.2 7.0 7.2 7.3
7.7 7.5 7.2 6.9 7.1 7.0 6.7 6.4 6.0 5.8 5.7 6.0 5.9 5.8 5.4 5.1 4.8 5.1 5.4 5.4 5.2 4.8 4.6 4.6 4.4 4.2 4.2 4.3 4.4 4.8 4.8 4.5 4.5 5.0 5.9 6.7 6.9 7.1 7.1 7.1 6.9 7.2 7.5
7.9 7.4 6.9 6.7 6.7 6.8 6.7 6.4 6.0 5.7 5.8 5.8 5.7 5.6 5.3 5.2 5.0 5.0 5.1 5.0 4.8 4.7 4.5 4.4 4.2 4.1 4.3 4.4 4.8 4.6 4.4 4.7 5.3 6.0 6.6 6.9 7.2 7.2 7.0 6.9 6.8 7.0 7.4
8.1 7.5 7.0 6.7 6.4 6.5 6.4 6.1 5.9 5.9 5.9 5.6 5.8 5.5 4.9 5.0 4.9 4.9 5.2 4.9 4.6 4.3 4.3 4.1 4.2 4.5 4.6 4.8 4.7 4.5 4.7 5.4 6.1 6.7 6.8 6.7 6.6 6.4 7.1 7.2 6.5 6.3 6.8
8.1 7.5 6.8 6.5 6.4 6.4 6.3 6.1 5.8 5.8 5.5 5.9 5.6 5.0 5.1 5.1 4.9 5.1 5.0 4.6 4.3 4.2 4.3 4.4 4.6 4.8 4.7 4.7 4.6 4.8 5.5 6.2 6.6 6.7 6.6 6.4 6.2 5.6 5.6 6.4 6.4 5.7 6.2
8.3 7.8 6.9 6.5 6.3 6.3 6.0 5.8 5.8 5.8 5.9 5.7 5.3 5.3 5.3 4.8 5.0 4.8 4.6 4.4 4.3 4.5 4.6 4.7 4.9 5.0 4.8 4.7 4.8 5.4 6.0 6.4 6.3 6.1 5.8 5.7 5.7 5.6 5.5 5.7 5.8 6.1 5.7
8.4 8.0 7.1 6.6 6.3 6.1 6.0 5.9 5.9 6.0 5.8 5.6 5.2 5.1 4.9 4.9 4.9 4.8 4.7 4.5 4.5 4.7 4.8 4.9 5.2 5.2 4.7 4.6 5.2 5.8 6.1 6.0 5.8 5.7 5.7 5.6 5.6 5.4 5.3 5.4 5.8 6.1 6.0
8.2 7.7 7.1 6.5 6.4 6.2 6.1 6.0 6.1 6.0 5.6 5.4 5.2 4.8 4.9 4.9 4.8 4.6 4.4 4.5 4.6 4.8 5.0 5.2 5.3 5.0 4.5 4.9 5.6 5.9 5.8 5.6 5.5 5.4 5.5 5.4 5.2 5.2 5.2 5.4 5.7 6.4 6.2
7.9 7.4 7.0 6.5 6.3 6.3 6.0 6.2 6.1 5.8 5.3 5.3 4.8 4.7 4.8 4.7 4.6 4.5 4.5 4.6 4.8 5.0 5.2 5.3 5.1 4.7 4.6 5.2 5.8 5.7 5.6 5.4 5.5 5.2 5.2 5.1 5.1 5.1 5.3 5.3 5.4 5.9 6.6
7.9 7.5 7.1 6.7 6.5 6.4 6.4 6.0 5.6 5.3 5.2 4.9 4.8 4.7 4.8 4.6 4.4 4.5 4.5 4.9 5.0 5.2 5.4 5.3 4.8 4.7 4.9 5.5 5.7 5.7 5.6 5.3 5.1 5.2 5.2 5.0 5.1 5.2 5.3 5.3 5.2 5.5 6.1
7.1 6.7 6.7 6.5 6.4 6.4 6.5 5.7 5.5 5.2 5.0 4.8 4.8 4.8 4.5 4.4 4.5 4.5 4.8 5.0 5.1 5.4 5.4 5.1 4.9 5.0 5.6 5.9 5.8 5.8 5.6 5.4 5.1 5.0 5.2 5.1 5.3 5.3 5.3 5.2 5.2 5.4 5.8
6.2 6.5 6.6 6.8 6.6 6.5 6.1 5.6 5.4 5.0 4.8 4.7 4.7 4.5 4.4 4.3 4.5 4.6 5.0 5.1 5.4 5.4 5.4 5.0 5.0 5.3 6.0 6.1 5.9 5.8 5.6 5.5 5.4 5.4 5.3 5.4 5.5 5.3 5.1 5.2 5.2 5.4 5.5
6.2 6.5 6.9 7.0 6.7 6.3 5.8 5.5 5.1 5.0 4.6 4.2 4.4 4.5 4.3 4.4 4.6 4.9 5.1 5.3 5.4 5.4 5.3 5.1 5.2 5.8 6.1 6.2 6.0 5.8 5.6 5.3 5.3 5.4 5.3 5.5 5.5 5.4 5.1 4.9 5.0 5.3 5.5
6.3 6.6 6.7 6.6 6.3 5.8 5.5 5.3 4.9 4.6 4.5 4.1 4.4 4.2 4.4 4.5 4.8 5.1 5.3 5.4 5.5 5.4 5.3 5.2 5.4 6.1 6.2 6.3 6.1 6.0 5.7 5.4 5.2 5.2 5.2 5.2 5.3 5.3 5.2 5.0 5.0 5.3 5.5
6.1 6.4 6.5 6.2 5.8 5.4 5.2 5.1 4.7 4.6 4.3 4.1 4.0 4.2 4.6 4.9 5.0 5.1 5.4 5.5 5.5 5.5 5.4 5.4 5.7 6.3 6.3 6.2 6.1 5.9 5.4 5.4 5.3 5.2 5.2 5.2 5.2 5.0 4.9 5.0 5.3 5.5 5.7
6.2 6.3 6.1 5.9 5.5 5.2 5.1 4.8 4.7 4.3 4.3 4.2 4.3 4.3 4.7 5.2 5.0 5.5 5.5 5.5 5.5 5.6 5.5 5.6 6.0 6.4 6.2 6.0 5.9 5.6 5.4 5.3 5.6 5.7 5.4 5.3 5.2 5.0 5.0 5.2 5.4 5.8 6.0
6.2 6.3 5.8 5.7 5.4 5.0 4.9 4.6 4.3 4.1 4.3 4.3 4.4 4.6 4.8 5.2 5.3 5.5 5.6 5.6 5.7 5.7 5.6 5.7 6.2 6.4 6.2 6.0 5.7 5.4 5.2 5.3 5.5 5.3 5.3 5.3 5.1 5.1 5.3 5.5 5.8 6.2 6.1
5.8 5.7 5.5 5.3 5.2 4.9 4.7 4.4 4.4 4.5 4.4 4.5 4.7 4.7 5.3 5.4 5.5 5.4 5.5 5.6 5.7 5.8 5.8 5.9 6.2 6.4 6.3 6.1 5.8 5.3 5.1 5.3 5.2 5.1 5.2 5.2 5.2 5.2 5.5 5.8 6.2 6.4 6.0
5.7 5.4 5.2 5.3 5.0 4.8 4.9 4.7 4.7 4.6 4.5 4.6 4.7 5.1 5.5 5.4 5.4 5.4 5.6 5.7 5.8 5.7 5.8 5.9 6.1 6.3 6.3 6.3 6.1 5.7 5.6 5.5 5.1 5.0 5.1 5.1 5.1 5.4 5.7 6.0 6.4 6.4 5.9
5.3 5.5 5.4 5.3 5.0 4.8 4.7 4.6 4.5 4.5 4.7 4.8 5.0 5.4 5.6 5.5 5.5 5.6 5.7 5.6 5.6 5.6 5.5 5.6 6.0 6.2 6.3 6.3 6.3 6.1 5.9 5.6 5.4 5.1 5.0 5.1 5.3 5.5 5.8 6.2 6.5 6.3 5.8
5.2 5.3 5.2 5.0 4.8 4.8 4.7 4.5 4.6 4.7 4.8 4.9 5.3 5.6 5.6 5.6 5.6 5.8 5.7 5.6 5.4 5.4 5.3 5.5 5.8 6.1 6.3 6.3 6.3 6.0 5.9 5.7 5.5 5.3 5.2 5.3 5.4 5.6 5.9 6.3 6.6 6.3 5.9
5.3 5.3 5.1 4.9 4.8 4.5 4.5 4.6 4.7 4.8 5.0 5.2 5.4 5.7 5.8 5.8 5.8 5.8 5.7 5.6 5.5 5.5 5.6 5.6 5.8 6.0 6.0 6.2 6.2 6.0 5.7 5.6 5.5 5.3 5.3 5.3 5.5 5.6 5.9 6.4 6.6 6.3 5.8
5.2 5.1 4.9 4.9 4.7 4.8 4.8 4.7 4.8 4.9 5.1 5.3 5.7 5.9 6.0 5.9 5.9 5.9 5.7 5.7 5.7 5.7 5.8 5.8 6.0 6.1 5.9 5.9 6.0 6.0 5.7 5.5 5.4 5.2 5.1 5.2 5.4 5.7 5.9 6.3 6.5 6.2 5.7
5.3 5.0 4.9 4.8 5.0 4.9 4.8 4.8 4.8 5.0 5.2 5.5 5.9 6.1 6.1 6.1 6.1 6.0 5.9 5.8 5.7 5.8 6.1 6.1 6.1 6.1 6.1 6.2 6.2 6.1 5.8 5.6 5.4 5.0 5.0 5.2 5.4 5.6 5.8 6.1 6.1 5.9 5.3
5.1 4.9 4.9 5.0 5.0 5.0 4.9 4.8 4.9 5.0 5.3 5.8 6.2 6.3 6.3 6.3 6.3 6.2 6.1 6.0 5.9 5.9 6.0 6.1 6.1 6.2 6.1 5.9 5.8 5.8 5.9 5.7 5.1 4.7 5.0 5.2 5.4 5.6 5.8 5.7 5.4 5.2 4.9
5.1 5.0 5.2 5.1 5.2 5.1 5.0 4.9 4.9 5.1 5.5 6.0 6.4 6.5 6.4 6.5 6.5 6.3 6.2 6.1 5.9 5.9 5.9 6.0 5.9 5.8 5.8 5.7 5.7 5.6 5.7 5.8 5.3 5.2 5.4 5.4 5.5 5.5 5.6 5.3 5.0 4.9 4.9
Wind_Speed
8 11 12 12 11 8 8 6 7 4 3 2 3 3 3 2 5 10 9 10 11 12 12 10 10 10 3 3 5 3 4 3 4 3 4 2 3 2 6 6 8 10 15
12 13 13 12 8 8 7 7 6 5 3 3 2 3 3 3 6 9 13 13 13 13 11 10 8 8 3 5 4 4 3 2 2 3 2 4 3 2 3 4 5 6 12
18 15 13 11 11 9 8 7 6 6 4 6 5 5 5 4 2 3 3 9 11 12 11 9 7 7 5 3 4 3 4 3 3 4 0 3 2 5 2 6 5 6 7
15 14 15 13 11 8 7 7 6 6 5 8 6 5 2 2 2 1 2 6 9 10 9 8 7 6 7 4 3 6 2 2 5 3 0 4 4 2 5 3 6 5 8
16 15 14 12 9 8 7 6 8 8 6 6 7 5 5 3 1 2 4 4 6 9 8 7 6 8 8 7 5 5 5 2 3 4 4 4 2 3 4 8 8 7 5
13 14 12 13 9 7 7 7 9 7 6 6 6 5 6 3 3 4 3 3 3 4 7 5 7 9 9 6 7 8 5 4 3 3 3 4 3 3 3 5 9 9 6
13 14 13 11 8 8 7 7 7 7 6 7 6 5 5 5 4 2 2 4 3 3 4 6 7 8 9 9 11 8 5 4 3 4 4 4 6 5 4 7 8 7 8
11 12 11 9 9 8 7 7 7 6 6 6 5 4 4 3 2 2 2 2 2 3 6 5 8 10 10 10 11 7 4 4 4 6 4 5 6 5 3 3 5 8 6
11 12 9 9 8 6 5 7 7 6 6 5 4 4 3 4 3 3 3 2 5 6 7 6 8 10 10 11 10 4 6 6 5 6 5 4 5 4 4 4 4 4 7
10 10 10 9 7 8 7 6 6 6 4 3 3 3 4 3 4 4 5 5 7 7 8 6 8 9 10 11 9 6 7 6 6 5 6 6 4 4 3 4 4 4 5
8 8 8 7 7 6 7 6 6 5 4 3 3 4 4 4 5 4 5 6 7 8 6 5 6 6 7 11 7 10 9 8 8 6 7 9 6 4 4 4 4 4 4
9 9 8 8 7 6 6 5 4 4 3 3 4 4 5 5 5 5 6 9 6 9 6 7 5 7 8 10 8 11 9 9 8 8 9 7 6 7 6 4 7 5 5
9 8 8 7 6 6 5 5 4 3 3 4 4 5 5 6 6 6 7 9 8 6 7 6 5 8 9 9 8 9 8 8 8 7 7 7 8 8 7 7 7 6 6
9 8 7 6 6 6 6 4 3 3 3 4 4 5 5 5 5 5 6 7 8 5 6 6 7 10 11 10 9 8 7 8 7 8 8 8 9 11 7 7 8 6 4
8 7 7 6 7 7 5 4 4 3 3 4 4 5 5 5 6 7 6 9 8 8 8 7 9 11 9 8 13 8 8 8 8 8 9 9 14 18 15 8 7 5 5
8 8 8 9 9 5 4 5 3 4 4 4 4 4 5 6 6 6 7 7 7 6 7 8 8 9 8 20 25 16 9 9 9 9 9 10 13 13 18 20 14 10 4
9 10 10 9 8 6 5 4 4 4 4 5 5 5 5 6 6 7 7 7 7 6 7 8 8 10 9 21 25 22 9 9 9 10 10 10 9 14 9 13 13 10 10
9 9 8 7 7 5 5 4 5 5 5 5 5 5 5 5 7 7 7 7 5 6 6 7 9 9 8 22 26 22 9 8 10 10 10 10 11 12 11 9 9 8 7
8 8 7 8 8 6 6 6 5 5 5 5 5 5 5 6 7 7 7 5 5 6 7 8 9 9 10 23 25 17 10 10 11 10 10 11 12 18 18 9 9 9 6
7 8 9 8 7 5 6 6 5 5 5 5 5 4 5 6 5 5 5 4 4 7 7 9 9 13 10 21 26 20 8 11 9 10 12 17 17 20 18 9 8 8 8
9 9 8 7 6 6 6 6 5 5 5 5 4 4 5 5 4 4 4 5 6 7 7 8 8 10 13 14 26 26 10 9 9 9 9 9 22 21 19 17 9 9 7
9 7 7 6 5 6 6 6 5 5 5 5 4 4 4 3 3 4 5 5 6 8 8 9 9 8 11 21 24 26 24 20 9 9 8 10 22 21 19 14 20 17 9
7 5 7 7 5 5 5 6 4 5 5 4 3 3 3 3 4 4 5 4 6 6 8 8 8 9 10 10 25 23 25 23 10 9 14 20 21 20 14 20 21 13 7
6 6 7 6 5 5 5 5 4 3 4 3 2 1 3 4 4 3 3 3 4 6 6 7 8 7 9 10 10 8 12 19 11 12 9 11 13 10 11 11 12 8 8
4 5 6 5 5 5 5 4 4 3 3 2 1 2 3 4 4 4 2 4 4 4 6 5 5 7 9 11 18 16 10 10 9 9 8 9 10 10 10 10 10 9 9
5 5 6 6 3 4 3 2 2 4 4 3 2 2 3 3 3 3 4 7 8 12 14 16 10 4 16 24 26 24 21 24 19 8 8 9 9 9 9 9 9 9 10
Wind_Direction
133 124 123 121 114 102 105 102 108 101 100 85 99 86 84 69 44 40 50 57 58 50 48 36 18 6 18 5 356 328 331 312 331 317 323 314 296 294 341 346 352 358 349
133 133 130 129 116 117 105 95 95 94 85 91 106 118 117 87 81 66 63 64 62 51 42 27 3 7 22 0 356 1 319 301 346 328 291 344 331 314 346 341 347 344 339
147 144 138 128 121 114 111 107 100 86 73 93 92 75 79 70 39 26 35 43 50 46 37 21 22 34 21 353 333 331 337 320 309 327 293 339 311 323 308 319 338 338 331
146 144 138 126 121 110 104 102 94 88 77 78 74 70 77 87 46 50 51 43 40 37 26 21 40 24 5 350 334 341 316 325 318 325 232 254 263 311 320 313 317 331 318
146 136 127 115 105 112 106 95 91 78 63 63 80 84 72 60 64 54 50 18 16 29 18 18 17 10 352 341 330 333 329 298 296 325 317 296 246 247 266 307 317 318 310
115 112 108 110 108 92 93 98 92 79 72 77 74 80 89 70 54 29 23 356 340 354 3 8 8 355 340 325 324 317 311 310 300 300 289 287 295 290 276 291 308 309 312
112 117 117 121 113 112 113 107 107 93 86 81 67 70 83 77 77 51 9 3 341 330 330 354 355 340 326 330 329 323 317 312 309 311 304 296 289 280 283 291 297 297 309
116 123 126 119 118 126 109 107 100 99 86 79 72 63 74 72 52 27 352 350 320 297 328 340 342 336 335 330 326 318 311 313 314 306 289 301 291 292 278 278 291 306 303
131 127 112 109 110 98 107 102 106 92 78 78 79 69 64 53 19 360 359 324 330 318 341 334 331 338 334 326 322 310 320 315 305 298 287 281 291 282 284 284 300 310 314
114 114 108 128 135 113 101 97 93 88 82 79 75 66 43 22 3 358 355 343 327 330 335 331 344 339 328 322 323 330 324 318 314 309 313 324 313 295 297 295 290 279 276
104 102 122 104 104 103 107 102 91 105 90 81 68 51 20 9 8 355 340 346 330 334 333 346 349 334 324 325 333 342 336 325 319 317 334 326 302 293 292 287 279 272 273
130 124 116 112 104 102 98 99 108 110 91 76 66 40 19 8 2 345 347 348 333 338 346 0 355 337 323 327 327 329 331 324 318 319 326 309 321 303 290 280 282 259 266
105 99 99 109 115 111 107 103 117 111 92 73 64 32 15 5 353 342 340 347 347 356 13 8 355 337 330 321 321 319 318 319 311 311 308 309 313 308 294 284 275 267 278
120 125 121 117 128 111 103 116 118 97 86 71 57 31 16 4 347 348 352 359 5 18 6 358 345 339 330 317 317 328 328 317 318 310 312 314 312 296 314 296 286 272 256
129 128 128 121 104 98 109 132 101 107 83 72 47 21 21 22 4 8 5 6 19 17 12 354 346 340 332 332 338 344 333 321 316 319 324 324 318 334 328 319 306 276 265
135 129 126 118 126 140 175 119 145 95 93 78 53 27 29 27 8 9 11 18 14 6 355 347 343 337 342 336 340 355 341 327 326 329 327 324 324 316 325 321 317 310 274
140 144 143 146 153 170 124 139 128 106 82 72 54 44 30 24 14 8 12 11 357 344 341 343 342 333 328 347 341 358 344 332 329 329 325 329 328 326 305 319 322 310 292
146 144 141 140 125 116 122 125 102 88 77 68 60 40 30 26 23 14 7 359 347 339 336 336 337 332 336 348 347 358 341 343 338 335 333 321 325 315 337 332 322 315 301
138 135 133 125 126 137 133 114 98 87 77 68 55 35 38 41 26 17 359 344 342 337 339 344 333 334 343 347 355 1 346 343 342 339 334 338 330 339 345 339 328 322 313
118 121 120 127 128 124 117 108 104 94 86 77 64 54 56 52 35 12 351 334 331 336 342 344 345 343 345 347 1 3 349 349 346 343 344 342 342 350 353 349 330 329 323
120 121 129 133 120 118 113 108 103 98 109 103 101 74 63 63 38 9 350 335 342 335 329 335 343 347 352 352 2 5 1 356 343 344 339 339 348 355 358 358 349 346 328
117 114 107 100 106 109 109 113 114 126 108 105 92 75 59 46 28 7 345 341 342 341 342 353 355 354 356 356 2 5 7 2 350 343 338 340 354 358 359 1 0 1 355
116 104 113 111 97 110 118 123 135 126 122 112 107 81 35 22 359 353 341 344 346 346 345 358 358 351 356 354 0 1 4 4 355 350 356 357 356 357 359 359 6 5 5
105 118 115 111 109 104 106 126 121 114 121 130 120 56 18 360 351 338 340 345 340 339 349 0 2 352 357 355 357 1 360 359 355 353 352 349 355 3 3 3 5 3 360
111 114 125 129 123 115 113 121 138 161 144 136 123 26 12 354 342 344 346 342 319 334 353 341 358 359 1 0 7 11 6 5 352 352 360 5 6 5 3 1 2 1 3
122 116 121 119 122 113 115 140 131 125 120 92 60 32 14 358 352 360 356 4 8 12 13 13 15 352 11 8 13 17 17 17 13 15 7 5 4 3 356 357 353 358 359